OPS 4682 DEB, 38385

Orbit data source: Space-Track

OPS 4682 DEB, 38385 is space debris in LEO originally from a launch on Sat, 03 Apr 1965 UTC launched from the Air Force Western Test Range (AFWTR). Debris objects in space refer to the collection of defunct objects orbiting the Earth. Examples of debris include non-operational satellites, rocket bodies, and fragments generated from explosions, collisions, or faulty payload assembly.

Loading next visibility...
Identifier
38385, 1965-027CN
Orbit
LEO
Country
Flag of USUS
Related business
Manufacturer
Unknown
Mission
Spacecraft
Bus & Motor
Unknown
Mass
Unknown
Launch date (UTC)
1965-04-03 (61 years ago)
Launch vehicle
Unknown
Launch site
Air Force Western Test Range (AFWTR)
Object type
Payload
Rocket body
Debris
Shape & HBR
Unknown shape, 0.1 m
Radar Cross Section
Small (<0.1 m²)

Expand to show TLE details & history
Last TLE update: 13 hours ago

TLE from 13 hours ago
0 OPS 4682 DEB
1 38385U 65027CN  26103.97330686 -.00000060  00000-0 -23125-3 0  9995
2 38385  90.2439 357.4572 0042159 244.8199 114.8547 12.96686126607131
Epoch: 2026-04-13T23:21Z
TLE epoch observation values (Epoch: 2026-04-13T23:21:33.712Z)
Latitude
0.00003°
Longitude
164.91051°
Altitude
1,291.653 km
Speed
7.204 km/s
True Right ascension
23h 49m 49s
True Declination
0° 00' 00"
Sunlit
Object was in daylight at epoch
Visualization orbit readout
Latitude
Unknown
Longitude
Unknown
Altitude
Unknown
Speed
Unknown
Apparent Right ascension
Unknown
Apparent Declination
Unknown
Sunlit
N/A
Visualization observer readout
Local Sidereal Time
18:54:56
Azimuth
Unknown
Elevation
Unknown
Doppler factor
Unknown
Orbital elements
Apogee altitude
1,304.483 km
Perigee altitude
1,239.977 km
Semi-major axis
7,650.367 km
Eccentricity
0.00422
Inclination
90.2439°
RAAN
357.4572°
Arg. of periapsis
244.8199°
True anomaly
115.29209°
Mean anomaly
114.8547°
Eccentric anomaly
115.07349°
Mean motion
3.24354 °/min
Orbital period
110.99 mins
BSTAR
-0.00023125
Loading maneuver chart data...
Computing Atmospheric mass density...
Loading historical data...
Loading historical data...
Loading historical data...
Loading historical data...
Loading historical data...
Loading historical data...
Loading historical data...

Documentation

Showing up to 5 results
|